Flag Weather past 2 weeks in West Covina, California, U.S.A.

Now
67 °F

Sunny.


Feels Like: 67 °F
Forecast: 59 / 81 °F
Wind: No wind

Location: Fullerton Municipal Airport

Current Time: Oct 30, 2014 at 10:04:13 AM

Latest Report: Oct 30, 2014 at 8:53 AM


Visibility: 10 mi

Pressure: 29.98 "Hg

Humidity: 63%

Dew point: 54 °F

Location of West CovinaLocation

Historic Weather in West Covina — Graph

°F

West Covina temperature yesterday

Maximum temperature yesterday: 87 °F (at 2:53 PM)
Minimum temperature yesterday: 57 °F (at 6:53 AM)
Average temperature yesterday: 71 °F

Past Weeks' High & Low Weather Summary

 TemperatureHumidityPressure
High88 °F (Oct 24, 2:53 PM)87% (Oct 20, 1:53 AM)30.05 "Hg (Oct 20, 1:53 AM)
Low57 °F (Oct 24, 6:53 AM)13% (Oct 24, 2:53 PM)29.81 "Hg (Oct 19, 4:53 PM)
Average70 °F64%29.93 "Hg
* Reported Oct 15 8:53 AM — Oct 30 8:53 AM, West Covina, Weather by CustomWeather, © 2014

Note: Actual official high and low records may vary slightly from our data, if they occured in-between our weather recording intervals... More about our weather records

Advertising

West Covina weather history for previous 24 hours

 ConditionsComfort  
Time TempWeatherWind HumidityBarometerVisibility
8:53 AM
Oct 30
67 °FSunny.No wind63%29.98 "Hg10 mi
7:53 AM60 °FClear.3 mph83%29.96 "Hg10 mi
6:53 AM60 °FClear.No wind83%29.96 "Hg10 mi
5:53 AM60 °FClear.No wind83%29.97 "Hg10 mi
4:53 AM61 °FClear.No wind81%29.96 "Hg10 mi
3:53 AM61 °FClear.No wind83%29.96 "Hg10 mi
2:53 AM62 °FClear.No wind80%29.97 "Hg10 mi
1:53 AM63 °FClear.No wind81%29.98 "Hg10 mi
12:53 AM64 °FClear.3 mph75%29.98 "Hg10 mi
11:53 PM
Oct 29
64 °FClear.No wind73%29.99 "Hg10 mi
10:53 PM66 °FClear.No wind68%29.98 "Hg10 mi
9:53 PM68 °FClear.No wind61%29.97 "Hg10 mi
8:53 PM69 °FClear.No wind59%29.96 "Hg10 mi
7:53 PM72 °FClear.No wind53%29.95 "Hg10 mi
6:53 PM74 °FSunny.3 mph46%29.94 "Hg10 mi
5:53 PM78 °FSunny.7 mph37%29.93 "Hg10 mi
4:53 PM85 °FSunny.6 mph30%29.92 "Hg10 mi
3:53 PM87 °FSunny.3 mph28%29.93 "Hg10 mi
2:53 PM87 °FSunny.7 mph33%29.93 "Hg10 mi
1:53 PM86 °FSunny.5 mph31%29.94 "Hg10 mi
12:53 PM84 °FSunny.7 mph36%29.97 "Hg10 mi
11:53 AM82 °FSunny.3 mph34%30.00 "Hg10 mi
10:53 AM77 °FSunny.3 mph47%30.01 "Hg8 mi
Weather by CustomWeather, © 2014

See weather overviewHow to use our weather pages